This is the latest recevied weather packets stored in our database for station/object OE6JUE. If no packets are shown the sender has not sent any weather packets the latest 10 day(s).
| Time | Temp. | Humidity | Pressure | Rain* | Wind** | Luminosity | Snow |
|---|---|---|---|---|---|---|---|
| 1777895089 | 24.44° C | 30% | 1016.7 hPa | 0 mm | - | - | - |
| 1777894790 | 24.44° C | 30% | 1016.7 hPa | 0 mm | - | - | - |
| 1777894490 | 25° C | 32% | 1016.7 hPa | 0 mm | - | - | - |
| 1777894189 | 25° C | 32% | 1016.7 hPa | 0 mm | - | - | - |
| 1777893890 | 24.44° C | 32% | 1016.9 hPa | 0 mm | - | - | - |
| 1777893589 | 24.44° C | 31% | 1016.8 hPa | 0 mm | - | - | - |
| 1777893290 | 25° C | 31% | 1017 hPa | 0 mm | - | - | - |
| 1777892989 | 25° C | 32% | 1017.1 hPa | 0 mm | - | - | - |
| 1777892689 | 24.44° C | 32% | 1017.1 hPa | 0 mm | - | - | - |
| 1777892389 | 24.44° C | 33% | 1017.2 hPa | 0 mm | - | - | - |
| 1777892090 | 23.89° C | 32% | 1017.2 hPa | 0 mm | - | - | - |
| 1777891789 | 23.33° C | 32% | 1017.3 hPa | 0 mm | - | - | - |
| 1777891489 | 23.89° C | 31% | 1017.3 hPa | 0 mm | - | - | - |
| 1777891189 | 23.89° C | 31% | 1017.4 hPa | 0 mm | - | - | - |
| 1777890889 | 24.44° C | 31% | 1017.4 hPa | 0 mm | - | - | - |
| 1777890589 | 23.89° C | 31% | 1017.5 hPa | 0 mm | - | - | - |
| 1777890289 | 23.33° C | 31% | 1017.4 hPa | 0 mm | - | - | - |
| 1777889989 | 23.89° C | 31% | 1017.6 hPa | 0 mm | - | - | - |
| 1777889689 | 23.89° C | 31% | 1017.8 hPa | 0 mm | - | - | - |
| 1777889389 | 23.33° C | 31% | 1017.8 hPa | 0 mm | - | - | - |
| 1777889089 | 23.89° C | 31% | 1017.8 hPa | 0 mm | - | - | - |
| 1777888789 | 23.33° C | 31% | 1017.9 hPa | 0 mm | - | - | - |
| 1777888489 | 23.33° C | 32% | 1017.9 hPa | 0 mm | - | - | - |
| 1777888189 | 23.33° C | 35% | 1018 hPa | 0 mm | - | - | - |
| 1777887889 | 22.78° C | 37% | 1018 hPa | 0 mm | - | - | - |
* Rain latest hour (hover to see other rain measurements)
** Current wind speed in m/s (hover to see current wind gust speed)